This is the latest recevied weather packets stored in our database for station/object KO4DYK. If no packets are shown the sender has not sent any weather packets the latest 1 day(s).
| Time | Temp. | Humidity | Pressure | Rain* | Wind** | Luminosity | Snow |
|---|---|---|---|---|---|---|---|
| 1778043747 | 21.11° C | 91% | 1011.5 hPa | 0 mm | 2.24 m/s, 236° | 0 W/m² | - |
| 1778043444 | 21.11° C | 91% | 1011.5 hPa | 0 mm | 1.79 m/s, 179° | 0 W/m² | - |
| 1778043140 | 21.11° C | 91% | 1011.6 hPa | 0 mm | 2.68 m/s, 201° | 0 W/m² | - |
| 1778042838 | 21.11° C | 91% | 1011.4 hPa | 0 mm | 0.89 m/s, 170° | 0 W/m² | - |
| 1778042535 | 21.11° C | 91% | 1011.3 hPa | 0 mm | 4.47 m/s, 183° | 0 W/m² | - |
| 1778042232 | 20.56° C | 91% | 1011.6 hPa | 0 mm | 2.24 m/s, 232° | 0 W/m² | - |
| 1778041930 | 20.56° C | 91% | 1011.7 hPa | 0 mm | 1.79 m/s, 157° | 0 W/m² | - |
| 1778041629 | 20.56° C | 92% | 1011.6 hPa | 0 mm | 2.24 m/s, 158° | 0 W/m² | - |
| 1778041326 | 20.56° C | 92% | 1011.7 hPa | 0 mm | 3.13 m/s, 222° | 0 W/m² | - |
| 1778041025 | 20.56° C | 92% | 1012 hPa | 0 mm | 1.34 m/s, 219° | 0 W/m² | - |
| 1778040721 | 20.56° C | 92% | 1011.9 hPa | 0 mm | 1.34 m/s, 135° | 0 W/m² | - |
| 1778040419 | 20.56° C | 92% | 1011.9 hPa | 0 mm | 3.58 m/s, 221° | 0 W/m² | - |
| 1778040115 | 20.56° C | 92% | 1011.9 hPa | 0 mm | 0.89 m/s, 147° | 0 W/m² | - |
| 1778039812 | 20.56° C | 92% | 1011.9 hPa | 0 mm | 1.79 m/s, 203° | 0 W/m² | - |
| 1778039509 | 20.56° C | 91% | 1012.1 hPa | 0 mm | 1.79 m/s, 176° | 0 W/m² | - |
| 1778039206 | 20.56° C | 91% | 1011.9 hPa | 0 mm | 2.24 m/s, 192° | 0 W/m² | - |
| 1778038903 | 20.56° C | 91% | 1011.7 hPa | 0 mm | 2.24 m/s, 217° | 0 W/m² | - |
| 1778038600 | 20.56° C | 92% | 1011.7 hPa | 0 mm | 1.34 m/s, 166° | 0 W/m² | - |
| 1778038297 | 20.56° C | 92% | 1011.7 hPa | 0 mm | 2.68 m/s, 177° | 0 W/m² | - |
| 1778037994 | 20.56° C | 92% | 1012 hPa | 0 mm | 2.24 m/s, 153° | 0 W/m² | - |
| 1778037691 | 20.56° C | 92% | 1012.4 hPa | 0 mm | 3.58 m/s, 169° | 0 W/m² | - |
| 1778037388 | 20.56° C | 92% | 1012.2 hPa | 0 mm | 3.58 m/s, 181° | 0 W/m² | - |
| 1778037085 | 20.56° C | 93% | 1012.4 hPa | 0 mm | 2.24 m/s, 181° | 0 W/m² | - |
| 1778036784 | 20.56° C | 92% | 1012.4 hPa | 0 mm | 1.34 m/s, 144° | 0 W/m² | - |
| 1778036480 | 20.56° C | 93% | 1012.3 hPa | 0 mm | 1.34 m/s, 172° | 0 W/m² | - |
* Rain latest hour (hover to see other rain measurements)
** Current wind speed in m/s (hover to see current wind gust speed)